TGW644 WSSS-VTSP

Flight info

Callsign TGW644
Flight time N/A
Altitude 32000
Route AROSO5B AROSO Y513 KALIL Y501 RINBA Y502 DUBAX R325 URGAD URGAD1C
Aircraft A21N/M-SDE2E3FGHIJ1RWXY/LB1

Departure

Time 2026-05-06 11:34
Airport Singapore Changi Airport (WSSS)

Arrival

Time N/A
Airport Phuket International Airport (VTSP)
Time Latitude Longitude Altitude Speed Heading
2026-05-06 11:23 1.36357 103.99219 30 ft 0 kts 112°
2026-05-06 11:26 1.36363 103.99203 30 ft 4 kts 112°
2026-05-06 11:27 1.36374 103.99178 30 ft 4 kts 112°
2026-05-06 11:27 1.36382 103.99158 30 ft 4 kts 107°
2026-05-06 11:27 1.36384 103.99134 30 ft 4 kts 66°
2026-05-06 11:27 1.36370 103.99119 30 ft 1 kts 22°
2026-05-06 11:28 1.36369 103.99118 30 ft 0 kts 22°
2026-05-06 11:30 1.36376 103.99121 30 ft 1 kts 22°
2026-05-06 11:30 1.36394 103.99129 30 ft 5 kts 23°
2026-05-06 11:30 1.36431 103.99149 30 ft 7 kts 42°
2026-05-06 11:30 1.36469 103.99194 30 ft 10 kts 53°
2026-05-06 11:31 1.36514 103.99254 30 ft 12 kts 53°
2026-05-06 11:31 1.36565 103.99322 30 ft 13 kts 53°
2026-05-06 11:31 1.36568 103.99408 30 ft 14 kts 114°
2026-05-06 11:31 1.36529 103.99502 30 ft 15 kts 112°
2026-05-06 11:32 1.36486 103.99603 30 ft 16 kts 113°
2026-05-06 11:32 1.36440 103.99710 30 ft 17 kts 113°
2026-05-06 11:32 1.36397 103.99809 30 ft 11 kts 113°
2026-05-06 11:32 1.36342 103.99864 31 ft 13 kts 167°
2026-05-06 11:33 1.36250 103.99876 32 ft 14 kts 172°
2026-05-06 11:33 1.36152 103.99880 32 ft 15 kts 199°
2026-05-06 11:33 1.35990 103.99811 32 ft 51 kts 202°
2026-05-06 11:33 1.35446 103.99582 36 ft 119 kts 203°
2026-05-06 11:34 1.34506 103.99186 35 ft 171 kts 203°
2026-05-06 11:34 1.33359 103.98706 408 ft 179 kts 202°
2026-05-06 11:34 1.32192 103.98215 897 ft 186 kts 203°
2026-05-06 11:34 1.30984 103.97700 1383 ft 194 kts 202°
2026-05-06 11:35 1.29707 103.97158 1789 ft 205 kts 203°
2026-05-06 11:35 1.28349 103.96582 2247 ft 218 kts 203°
2026-05-06 11:35 1.26900 103.95968 2648 ft 236 kts 202°
2026-05-06 11:35 1.25240 103.95562 2959 ft 256 kts 179°
2026-05-06 11:36 1.23483 103.95971 3453 ft 266 kts 152°